Regional Weather Roundup
Issued by NWS Charleston, SC

Current Version | Previous Version | Graphics & Text | Print | Product List | Glossary On
Versions: 1 2 3 4 5 6 7 8 9 10 11 12 13 14 15 16 17 18 19 20 21 22 23 24 25 26 27 28 29 30 31 32 33 34 35 36 37 38 39 40 41 42 43 44 45 46 47 48 49 50
000 ASUS42 KCHS 021012 RWRCHS REGIONAL WEATHER ROUNDUP NATIONAL WEATHER SERVICE CHARLESTON SC 600 AM EDT WED SEP 02 2015 NOTE: "FAIR" INDICATES FEW OR NO CLOUDS BELOW 12,000 FEET WITH NO SIGNIFICANT WEATHER AND/OR OBSTRUCTIONS TO VISIBILITY. NOT ALL STATIONS ARE QUALITY CONTROLLED BY THE NATIONAL WEATHER SERVICE. USE DATA WITH CAUTION...ESPECIALLY DEWPOINT OBSERVATIONS. SCZ027-030-031-034>040-042>050-021100- ...SOUTHEAST SOUTH CAROLINA... CITY SKY/WX TMP DP RH WIND PRES REMARKS N CHARLESTON PTCLDY 75 73 93 N5 30.06S WATERFRONT PRK N/A 78 76 94 VRB3 30.04R MOUNT PLEASANT NOT AVBL JOHNS ISLAND FAIR 77 75 94 CALM 30.06S PINOPOLIS N/A 79 75 89 VRB3 29.99F MONCKS CORNER FOG 73 70 88 CALM 30.07S VSB 1/2 SUMMERVILLE CLOUDY 72 72 100 CALM 30.08S FOG BEAUFORT MCAS CLEAR 76 75 97 N3 30.07R BEAUFORT ARPT NOT AVBL HILTON HEAD IS NOT AVBL WALTERBORO FOG 73 72 94 CALM 30.08S VSB 1/2 ALLENDALE NOT AVBL ...SOUTHERN MIDLANDS AND PEE DEE... CITY SKY/WX TMP DP RH WIND PRES REMARKS GEORGETOWN NOT AVBL KINGSTREE NOT AVBL ORANGEBURG PTCLDY 73 71 93 CALM 30.08S FOG BARNWELL FAIR 72 72 100 CALM 30.09S AIKEN FAIR 70 68 94 CALM 30.13R MANNING CLOUDY 70 70 100 CALM 30.08S COLUMBIA MOCLDY 72 68 87 CALM 30.07S SUMTER PTCLDY 74 72 92 W3 30.06R FLORENCE CLEAR 74 72 93 CALM 30.07R MYRTLE BEACH CLEAR 75 70 83 CALM 30.09R N MYRTLE BEACH CLEAR 74 72 93 CALM 30.06S $$ GAZ063-065-086>088-099>101-113>116-118-119-134>141-150-021100- ...SOUTHEAST GEORGIA... CITY SKY/WX TMP DP RH WIND PRES REMARKS SAVANNAH ARPT FOG 75 74 96 N3 30.07R VSB 1 HUNTER AAF PTCLDY 76 76 100 N2 30.04R FORT STEWART MOCLDY 73 72 95 CALM 30.04R STATESBORO MOCLDY 73 32 22 CALM 30.07R HAZE SYLVANIA N/A 73 73 100 CALM 30.09R FOG CLAXTON NOT AVBL ...CSRA...CENTRAL AND FAR SOUTHEAST GEORGIA... CITY SKY/WX TMP DP RH WIND PRES REMARKS THOMSON PTCLDY 69 69 100 CALM 30.14R AUGUSTA-BUSH CLEAR 70 69 97 CALM 30.07S AUGUSTA-DANIEL CLEAR 74 71 91 CALM 30.09S SWAINSBORO FAIR N/A N/A N/A CALM 30.09R VIDALIA CLOUDY 73 73 100 CALM 30.08R FOG EASTMAN CLOUDY 71 71 100 CALM 30.10R FOG HAZLEHURST CLOUDY 76 76 100 CALM 30.06R ALMA MOCLDY 76 75 97 CALM 30.06R WAYCROSS CLOUDY 79 79 99 CALM 30.06R JESUP CLOUDY 75 73 94 CALM 30.06R FOG BAXLEY CLOUDY 77 75 94 CALM 30.06R BRUNSWICK MOCLDY 72 70 94 CALM 30.06R SAINT SIMONS MOCLDY 78 76 93 CALM 30.04S $$ SCZ027-028-034-036>038-045-046-048>050-GAZ119-141-021100- ...LAKE AND SUPPLEMENTAL COASTAL OBSERVATIONS... STATION/POSITION TIME TEMP WIND PRES WAVE SWELL AIR SEA DIR/SP/G HT/PER HT/PER/DIR (UTC) (F) (DEG/KT/KT) (MB) (FT/S) (FT/S/D) UPR LAKE MARION NOT AVBL WINYAH BAY NOT AVBL LAKE MURRAY 0900 77 280/ 4/ 5 1017.6S ACE BASIN NERRS NOT AVBL FORT PULASKI 0900 79 83 350/ 4/ 5 1018.0S SAPELO ISLAND 0900 77 CALM 1017.0S $$ ANZ835-935-AMZ111-154-330-350-352-354-370-450-454-472-021100- ...C-MAN AND BUOY OBSERVATIONS... STATION/POSITION TIME TEMP WIND PRES WAVE SWELL AIR SEA DIR/SP/G HT/PER HT/PER/DIR (UTC) (F) (DEG/KT/KT) (MB) (FT/S) (FT/S/D) BUOY 41004 0950 82 83 290/ 6/ 6 1017.3S 2/ 9 2/ 9 BUOY 41008 0950 83 84 200/ 8/ 10 1017.7R 2/ 9 2/110/ 9 FOLLY BEACH CMAN 0900 78 320/ 3/ 3 1017.9S CAPERS NEARSHORE 0908 80 350/ 6/ 8 1018.0S FRIPP NEARSHORE 0900 82 250/ 6/ 6 1017.4F STATION/POSITION TIME TEMP WIND PRES WAVE SWELL AIR SEA DIR/SP/G HT/PER HT/PER/DIR (UTC) (F) (DEG/KT/KT) (MB) (FT/S) (FT/S/D) 5E ST. MARYS GA 0921 85 N/A 2/ 9 FRYING PAN BUOY 0950 81 81 280/ 8/ 10 1018.3S 2/ 9 2/130/ 9 BUOY 41025 0950 80 83 310/ 10/ 12 1017.3R 2/ 9 2/130/ 9 CAPE LOOKOUT NC 0900 79 280/ 9/ 9 1017.1F BUOY 41002 0950 83 84 300/ 10/ 12 1017.1F 2/ 9 2/100/ 9 BUOY 41010 0920 84 85 130/ 2/ 4 1017.8F ST AUGUSTINE FL 1000 80 83 200/ 6/ 7 1018.2R $$

USA.gov is the U.S. government's official web portal to all federal, state and local government web resources and services.